This is the latest recevied weather packets stored in our database for station/object AD9CI-15. If no packets are shown the sender has not sent any weather packets the latest 10 day(s).
| Time | Temp. | Humidity | Pressure | Rain* | Wind** | Luminosity | Snow |
|---|---|---|---|---|---|---|---|
| 1778031284 | 11.67° C | 30% | 1008.7 hPa | - | - | - | - |
| 1778031143 | 11.67° C | 30% | 1008.7 hPa | - | - | - | - |
| 1778030037 | 12.22° C | 30% | 1008.4 hPa | - | - | - | - |
| 1778029463 | 12.22° C | 30% | 1008.4 hPa | - | - | - | - |
| 1778027626 | 12.78° C | 29% | 1008 hPa | - | - | - | - |
| 1778027543 | 12.78° C | 29% | 1008 hPa | - | - | - | - |
| 1778026207 | 13.33° C | 28% | 1007.9 hPa | - | - | - | - |
| 1778026151 | 13.33° C | 28% | 1007.9 hPa | - | - | - | - |
| 1778025863 | 13.33° C | 28% | 1007.9 hPa | - | - | - | - |
| 1778024071 | 13.89° C | 28% | 1007.8 hPa | - | - | - | - |
| 1778023943 | 13.89° C | 28% | 1007.8 hPa | - | - | - | - |
| 1778022742 | 14.44° C | 28% | 1007.9 hPa | - | - | - | - |
| 1778022262 | 14.44° C | 28% | 1007.9 hPa | - | - | - | - |
| 1778020439 | 14.44° C | 28% | 1007.7 hPa | - | - | - | - |
| 1778020342 | 14.44° C | 28% | 1007.7 hPa | - | - | - | - |
| 1778018938 | 14.44° C | 28% | 1007.5 hPa | - | - | - | - |
| 1778018663 | 14.44° C | 28% | 1007.5 hPa | - | - | - | - |
| 1778016881 | 15.56° C | 31% | 1007.6 hPa | - | - | - | - |
| 1778016743 | 15.56° C | 31% | 1007.6 hPa | - | - | - | - |
| 1778015308 | 14.44° C | 30% | 1007.6 hPa | - | - | - | - |
| 1778015062 | 14.44° C | 30% | 1007.6 hPa | - | - | - | - |
| 1778013352 | 13.89° C | 29% | 1007.9 hPa | - | - | - | - |
| 1778013142 | 13.89° C | 29% | 1007.9 hPa | - | - | - | - |
| 1778011745 | 13.89° C | 29% | 1008.1 hPa | - | - | - | - |
| 1778011462 | 13.89° C | 29% | 1008.1 hPa | - | - | - | - |
* Rain since midnight (hover to see other rain measurements)
** Current wind speed in m/s (hover to see current wind gust speed)